[[{"header":{"parameterUnit":"m.s-1","parameterCategory":2,"la1":30.2991,"la2":30.254,"lo1":-89.0895,"lo2":-89.0444,"dy":0.0017,"dx":0.0017,"nx":28,"ny":28,"refTime":"2025-01-15T09:00:00:Z","depth":"0","parameterNumber":2,"parameterNumberName":"U-component_of_CURRENTS"},"data":[0,0,0,0,0,0,0,0,0,0,0,0,0,0,0,0,0,0,0,0,0,0,0,0,0,0,0,0,0,0,0,0,0,0,0,0,0,0,0,0,0,0,0,0,0,0,0,0,0,0,0,0,0,0,0,0,0,0,0.3349,0.3349,0,0.3389,0.3389,0.339,0.3393,0.3393,0.3393,0.3393,0.3374,0.3373,0.3373,0,0,0,0,0,0,0,0,0,0,0,0,0,0.3287,0.3288,0.3349,0.335,0.335,0.3389,0.3389,0.339,0.3393,0.3393,0.3393,0.3393,0.3374,0.3373,0.3373,0,0,0,0,0,0,0,0,0,0,0,0,0,0.3316,0.3288,0.3349,0.3359,0.3361,0.3389,0.3389,0.339,0.3393,0.3393,0.3393,0.3392,0.3374,0.3373,0.3373,0.3373,0,0,0.3371,0.3371,0,0,0,0,0,0,0,0,0.3315,0.3318,0.3357,0.3359,0.336,0.3389,0.3361,0.3382,0.3393,0.3377,0.3393,0.3392,0.3375,0.3375,0.3379,0.3372,0.3371,0.3371,0.3371,0.337,0.337,0,0,0,0,0,0,0,0.3312,0.3316,0.3361,0.3358,0.336,0.3367,0.337,0.3365,0.3373,0.3379,0.338,0.339,0.3376,0.338,0.3378,0.3371,0.3371,0.337,0.337,0.337,0.3395,0.3395,0,0,0,0,0,0,0.3314,0.3315,0.336,0.3363,0.334,0.3368,0.3372,0.3377,0.3375,0.3376,0.339,0.339,0.3381,0.3379,0.3378,0.3401,0.337,0.337,0.3369,0.3394,0.3395,0.3396,0,0,0,0,0,0,0.3312,0.3317,0.3359,0.3342,0.3349,0.337,0.3376,0.3378,0.3388,0.3385,0.3383,0.3398,0.338,0.3378,0.3382,0.34,0.337,0.3369,0.3392,0.3394,0.3395,0.3433,0,0,0,0,0,0,0.331,0.3316,0.3319,0.3342,0.335,0.3379,0.3376,0.3379,0.3396,0.3396,0.3391,0.3389,0.338,0.3383,0.3381,0.3398,0.3369,0.3391,0.3393,0.3395,0.3431,0.3436,0.344,0,0,0,0,0,0.3308,0.3307,0.3318,0.3324,0.3353,0.3379,0.3383,0.3395,0.3397,0.3403,0.3402,0.339,0.3394,0.3383,0.3381,0.3398,0.339,0.3392,0.3395,0.3429,0.3435,0.344,0,0,0,0,0,0,0.3275,0.3309,0.3321,0.3329,0.3357,0.3381,0.3387,0.34,0.3406,0.3403,0.3397,0.3395,0.3411,0.3398,0.3386,0.3412,0.3392,0.3394,0.3419,0.3424,0.3429,0.3435,0.3368,0,0,0,0,0,0.3272,0.3281,0.3319,0.3324,0.3341,0.3367,0.3379,0.3391,0.3403,0.3406,0.3407,0.3408,0.3419,0.3415,0.342,0.3425,0.3437,0.3437,0.3442,0.3446,0.3451,0.3501,0.3511,0.3403,0.3403,0.3403,0,0,0.3258,0.328,0.3283,0.3319,0.3339,0.3364,0.3372,0.3393,0.3415,0.3402,0.3421,0.3427,0.3426,0.3441,0.3446,0.343,0.3482,0.3449,0.3452,0.3455,0.3504,0.3515,0.3524,0.3405,0.3404,0.3404,0,0,0.3242,0.326,0.3269,0.3296,0.3335,0.3358,0.3368,0.3402,0.3418,0.3439,0.3444,0.3462,0.3464,0.3476,0.348,0.3513,0.3513,0.3513,0.3532,0.3581,0.359,0.3599,0.3623,0.3633,0.3507,0.3507,0.3507,0,0.3226,0.3246,0.3274,0.3298,0.3323,0.3358,0.3382,0.3405,0.3436,0.3456,0.3448,0.3489,0.3485,0.3519,0.353,0.3525,0.3544,0.3509,0.3588,0.3596,0.3604,0.3627,0.3638,0.3509,0.3509,0.3508,0.3508,0,0.3228,0.3246,0.3254,0.3298,0.3329,0.3351,0.3401,0.3428,0.3452,0.3479,0.3523,0.353,0.3555,0.356,0.355,0.3606,0.3599,0.3596,0.3574,0.3618,0.3639,0.365,0.3512,0.3511,0.351,0.351,0,0,0.3176,0.3244,0.3243,0.3266,0.3334,0.3353,0.3405,0.3461,0.3499,0.3526,0.3578,0.3597,0.3611,0.3617,0.362,0.3652,0.3719,0.3644,0.3645,0.3668,0.3816,0.3762,0.3768,0.3734,0.3736,0.3738,0.3806,0,0.3168,0.3203,0.3249,0.3282,0.3307,0.3369,0.3414,0.3469,0.3523,0.3578,0.3608,0.3652,0.3631,0.365,0.3682,0.3722,0.375,0.37,0.377,0.3771,0.3719,0.378,0.3647,0.3693,0.3817,0.3818,0.382,0,0.315,0.318,0.3213,0.3282,0.33,0.3328,0.3416,0.3464,0.3559,0.361,0.3668,0.3698,0.3757,0.3732,0.3816,0.3787,0.3802,0.3821,0.3825,0.3769,0.3738,0.3671,0.3708,0.3623,0.3836,0.3835,0.3833,0,0.3085,0.3148,0.3171,0.3194,0.328,0.331,0.336,0.346,0.3519,0.3634,0.3687,0.3765,0.3806,0.3854,0.3886,0.3864,0.3975,0.3951,0.3912,0.3907,0.3804,0.3787,0.3766,0.4007,0.4007,0.4007,0.4007,0,0.3052,0.3065,0.3136,0.3145,0.318,0.326,0.3319,0.3398,0.3519,0.3579,0.3685,0.3747,0.3841,0.3906,0.3925,0.3957,0.4009,0.3931,0.3932,0.3811,0.3795,0.3722,0.3679,0.4009,0.4009,0.4008,0.4008,0,0.2974,0.3021,0.3046,0.3125,0.3147,0.3168,0.3284,0.3331,0.3463,0.3552,0.3591,0.3755,0.3847,0.3922,0.4015,0.3998,0.3931,0.403,0.3871,0.3851,0.3713,0.3676,0.3547,0.3431,0.4001,0.4001,0.4,0,0.294,0.2943,0.3007,0.3016,0.3048,0.3099,0.3135,0.3281,0.3344,0.3535,0.3565,0.3711,0.3794,0.3933,0.3962,0.4012,0.3888,0.3883,0.3811,0.3699,0.3661,0.3532,0.3434,0.3689,0.3686,0.3683,0.3681,0,0.2872,0.2891,0.2911,0.2933,0.2957,0.2994,0.306,0.3114,0.3272,0.3354,0.3476,0.3572,0.3742,0.3763,0.3852,0.3858,0.3698,0.3829,0.3764,0.3458,0.3267,0.3157,0.3639,0.3658,0.366,0.3662,0.3663,0.3664,0.2812,0.2803,0.2823,0.2835,0.2858,0.2871,0.2861,0.2953,0.3024,0.3125,0.3302,0.3384,0.3536,0.3666,0.3657,0.357,0.3547,0.3455,0.3435,0.3327,0.3157,0.3579,0.3567,0.3569,0.357,0.3571,0.3573,0,0.2721,0.2719,0.2726,0.2719,0.2687,0.2742,0.2782,0.2754,0.2767,0.2929,0.3016,0.3141,0.3207,0.3309,0.333,0.3209,0.3068,0.3103,0.2898,0.2831,0.3263,0.3192,0.3036,0.3036,0.3036,0.3036,0.3036,0.3037,0.267,0.2631,0.2629,0.2538,0.2527,0.2438,0.2427,0.2423,0.2498,0.2552,0.2617,0.2751,0.3,0.3107,0.3023,0.2946,0.271,0.2586,0.2568,0.2897,0.2928,0.2958,0.2882,0.2663,0.2663,0.202,0.2016,0.2012]},{"header":{"parameterUnit":"m.s-1","parameterCategory":2,"la1":30.2991,"la2":30.254,"lo1":-89.0895,"lo2":-89.0444,"dy":0.0017,"dx":0.0017,"nx":28,"ny":28,"refTime":"2025-01-15T09:00:00:Z","depth":"0","parameterNumber":3,"parameterNumberName":"V-component_of_CURRENTS"},"data":[0,0,0,0,0,0,0,0,0,0,0,0,0,0,0,0,0,0,0,0,0,0,0,0,0,0,0,0,0,0,0,0,0,0,0,0,0,0,0,0,0,0,0,0,0,0,0,0,0,0,0,0,0,0,0,0,0,0,-0.0219,-0.0219,0,-0.0311,-0.0312,-0.0313,-0.038,-0.0381,-0.0381,-0.0381,-0.0507,-0.0509,-0.0512,0,0,0,0,0,0,0,0,0,0,0,0,0,-0.0158,-0.0159,-0.0218,-0.022,-0.0221,-0.0311,-0.0312,-0.0313,-0.038,-0.0381,-0.0381,-0.0382,-0.0506,-0.0509,-0.0512,0,0,0,0,0,0,0,0,0,0,0,0,0,-0.0212,-0.0159,-0.0218,-0.0264,-0.0269,-0.031,-0.0312,-0.0314,-0.038,-0.0381,-0.0381,-0.0382,-0.0504,-0.0509,-0.0513,-0.0526,0,0,-0.0526,-0.0528,0,0,0,0,0,0,0,0,-0.0208,-0.0214,-0.0256,-0.0261,-0.0266,-0.0334,-0.0337,-0.0386,-0.038,-0.0339,-0.0381,-0.0382,-0.0451,-0.0459,-0.0476,-0.0532,-0.0537,-0.0527,-0.0529,-0.0531,-0.0532,0,0,0,0,0,0,0,-0.0204,-0.0211,-0.0256,-0.0257,-0.0263,-0.03,-0.0307,-0.0346,-0.0391,-0.0343,-0.0347,-0.0356,-0.0454,-0.0472,-0.048,-0.0539,-0.0526,-0.053,-0.0533,-0.0535,-0.0601,-0.06,0,0,0,0,0,0,-0.0187,-0.0207,-0.0253,-0.0259,-0.0237,-0.03,-0.0309,-0.0312,-0.039,-0.0402,-0.0355,-0.0358,-0.0464,-0.0475,-0.0484,-0.0486,-0.0531,-0.0535,-0.0538,-0.0602,-0.0601,-0.06,0,0,0,0,0,0,-0.0185,-0.019,-0.0249,-0.0234,-0.0244,-0.0299,-0.0303,-0.0314,-0.033,-0.0399,-0.0412,-0.036,-0.0465,-0.0478,-0.0509,-0.0492,-0.0537,-0.0541,-0.0603,-0.0602,-0.06,-0.0502,0,0,0,0,0,0,-0.0183,-0.0189,-0.0184,-0.0233,-0.0244,-0.0263,-0.0303,-0.0315,-0.0334,-0.0339,-0.0408,-0.042,-0.0467,-0.0502,-0.0514,-0.0499,-0.0544,-0.0604,-0.0602,-0.0601,-0.0506,-0.0497,-0.049,0,0,0,0,0,-0.0181,-0.0164,-0.0184,-0.0189,-0.0237,-0.0262,-0.0271,-0.0314,-0.0333,-0.0332,-0.0377,-0.0418,-0.0501,-0.0505,-0.0519,-0.0505,-0.0605,-0.0603,-0.0601,-0.051,-0.0499,-0.049,0,0,0,0,0,0,-0.013,-0.0171,-0.0193,-0.0189,-0.022,-0.0273,-0.0274,-0.0304,-0.034,-0.0342,-0.041,-0.0426,-0.0448,-0.0487,-0.0491,-0.0519,-0.0558,-0.0559,-0.0484,-0.0475,-0.0467,-0.0434,-0.0548,0,0,0,0,0,-0.0117,-0.0119,-0.0164,-0.016,-0.0171,-0.0221,-0.0236,-0.0262,-0.0301,-0.0318,-0.0368,-0.0414,-0.0451,-0.047,-0.0512,-0.0525,-0.0551,-0.0524,-0.0516,-0.0509,-0.0491,-0.0524,-0.0517,-0.0594,-0.0594,-0.0594,0,0,-0.0097,-0.0119,-0.012,-0.015,-0.0177,-0.0176,-0.0232,-0.0242,-0.0242,-0.0325,-0.0339,-0.039,-0.0449,-0.0466,-0.0479,-0.0496,-0.0497,-0.0507,-0.05,-0.0486,-0.0522,-0.0514,-0.0507,-0.0592,-0.0593,-0.0593,0,0,-0.0049,-0.0074,-0.0058,-0.0076,-0.0106,-0.0136,-0.0134,-0.0181,-0.0202,-0.0225,-0.028,-0.0314,-0.0378,-0.041,-0.0435,-0.0405,-0.0456,-0.0422,-0.0352,-0.0385,-0.0378,-0.0373,-0.0377,-0.0374,-0.0414,-0.0414,-0.0414,0,-0.0021,-0.001,-0.0056,-0.0043,-0.0046,-0.011,-0.0086,-0.0116,-0.0168,-0.0174,-0.0215,-0.0292,-0.0347,-0.0358,-0.035,-0.0385,-0.0404,-0.0384,-0.0373,-0.0368,-0.0365,-0.0371,-0.0368,-0.0409,-0.041,-0.041,-0.0411,0,0.0035,0.0046,0.0057,0.0051,0.0043,0.0052,0.001,-0.0004,-0.0043,-0.0076,-0.0104,-0.0183,-0.0225,-0.0251,-0.0295,-0.0291,-0.0311,-0.0361,-0.0394,-0.0351,-0.036,-0.0359,-0.0402,-0.0404,-0.0405,-0.0407,0,0,0.0102,0.0097,0.0105,0.0122,0.0096,0.0101,0.0103,0.009,0.0106,0.0035,0.0047,-0.0032,-0.0078,-0.0109,-0.0172,-0.0202,-0.0198,-0.0261,-0.0265,-0.0256,-0.0246,-0.0253,-0.0253,-0.0249,-0.0249,-0.0249,-0.0255,0,0.0162,0.0213,0.0191,0.0245,0.0268,0.0221,0.0229,0.021,0.0179,0.0172,0.0089,0.0066,-0.0023,-0.0041,-0.0084,-0.017,-0.0193,-0.019,-0.0296,-0.0298,-0.0303,-0.0251,-0.023,-0.0233,-0.0254,-0.0254,-0.0254,0,0.0231,0.0255,0.0316,0.0342,0.035,0.0367,0.0384,0.0387,0.0355,0.033,0.0291,0.0219,0.017,0.0078,-0.0032,-0.0027,-0.0118,-0.0193,-0.0196,-0.0235,-0.0303,-0.0285,-0.0231,-0.0384,-0.0252,-0.0252,-0.0252,0,0.0306,0.0349,0.0404,0.0412,0.0424,0.0445,0.045,0.0437,0.0468,0.0437,0.0451,0.0362,0.0333,0.02,0.0039,0.0005,-0.0081,-0.0154,-0.024,-0.0241,-0.0258,-0.0261,-0.0358,-0.0224,-0.0224,-0.0224,-0.0224,0,0.038,0.0427,0.0444,0.0474,0.0546,0.0526,0.0601,0.0586,0.0604,0.0661,0.0543,0.057,0.0359,0.0273,0.0105,-0.0043,-0.0031,-0.0203,-0.024,-0.0221,-0.0221,-0.0386,-0.0495,-0.0225,-0.0225,-0.0224,-0.0224,0,0.0454,0.0461,0.0529,0.0562,0.0582,0.0635,0.0705,0.0763,0.0752,0.0825,0.0821,0.0746,0.0635,0.0427,0.0231,0.0066,-0.0184,-0.0158,-0.0106,-0.0137,-0.0372,-0.0475,-0.0617,-0.0674,-0.0246,-0.0246,-0.0246,0,0.0492,0.0534,0.0604,0.0658,0.0678,0.0756,0.0815,0.0835,0.0913,0.0943,0.0996,0.0911,0.0882,0.0604,0.0297,0.0027,-0.0161,-0.0146,-0.0221,-0.0357,-0.05,-0.058,-0.0624,-0.0197,-0.0197,-0.0197,-0.0196,0,0.0572,0.0594,0.0653,0.0764,0.0842,0.0938,0.1028,0.1115,0.115,0.1212,0.1288,0.1267,0.0998,0.0751,0.0363,0.0148,-0.0252,-0.015,-0.0314,-0.0476,-0.0547,-0.0628,-0.0208,-0.0194,-0.0195,-0.0195,-0.0195,-0.0195,0.0636,0.0695,0.0778,0.0889,0.0982,0.1109,0.1206,0.1315,0.145,0.1548,0.1524,0.1522,0.1133,0.062,0.0322,-0.0214,-0.0239,-0.0385,-0.0495,-0.0561,-0.0629,-0.0185,-0.0209,-0.0209,-0.0209,-0.0209,-0.0209,0,0.0721,0.0791,0.09,0.103,0.1147,0.1175,0.1344,0.1446,0.1615,0.1703,0.1767,0.1579,0.1117,0.0601,-0.0107,-0.0479,-0.0631,-0.0699,-0.0817,-0.0843,-0.046,-0.0471,-0.0524,-0.0524,-0.0524,-0.0524,-0.0523,-0.0523,0.0771,0.089,0.0947,0.1153,0.1245,0.1399,0.1498,0.164,0.1743,0.1856,0.1854,0.1827,0.1422,0.0197,-0.063,-0.083,-0.1093,-0.1166,-0.1289,-0.1048,-0.1027,-0.1007,-0.1041,-0.1214,-0.1215,-0.1604,-0.1608,-0.1611]}],[{"header":{"parameterUnit":"m.s-1","parameterCategory":2,"la1":30.2991,"la2":30.254,"lo1":-89.0895,"lo2":-89.0444,"dy":0.0017,"dx":0.0017,"nx":28,"ny":28,"refTime":"2025-01-15T09:00:00:Z","depth":"2","parameterNumber":2,"parameterNumberName":"U-component_of_CURRENTS"},"data":[0,0,0,0,0,0,0,0,0,0,0,0,0,0,0,0,0,0,0,0,0,0,0,0,0,0,0,0,0,0,0,0,0,0,0,0,0,0,0,0,0,0,0,0,0,0,0,0,0,0,0,0,0,0,0,0,0,0,0.2846,0.2847,0,0.287,0.287,0.287,0.2903,0.2904,0.2905,0.2906,0.2953,0.2953,0.2953,0,0,0,0,0,0,0,0,0,0,0,0,0,0.2743,0.2744,0.2846,0.2847,0.2848,0.287,0.287,0.2869,0.2902,0.2904,0.2905,0.2907,0.2953,0.2953,0.2953,0,0,0,0,0,0,0,0,0,0,0,0,0,0.2772,0.2745,0.2845,0.2872,0.2875,0.287,0.287,0.2869,0.2902,0.2904,0.2906,0.2907,0.2953,0.2953,0.2953,0.2918,0,0,0.2954,0.2954,0,0,0,0,0,0,0,0,0.2771,0.2775,0.2867,0.287,0.2874,0.2892,0.2851,0.2889,0.2902,0.2884,0.2906,0.2908,0.2938,0.294,0.2929,0.292,0.2922,0.2954,0.2954,0.2954,0.2954,0,0,0,0,0,0,0,0.2769,0.2774,0.2848,0.2868,0.2872,0.2854,0.2861,0.2857,0.2895,0.2886,0.289,0.2904,0.2939,0.2929,0.2931,0.2923,0.2954,0.2954,0.2954,0.2954,0.3012,0.3013,0,0,0,0,0,0,0.2783,0.2772,0.2847,0.2849,0.2834,0.2856,0.2862,0.2878,0.2895,0.2901,0.2902,0.2905,0.2928,0.2931,0.2933,0.2986,0.2954,0.2954,0.2954,0.3011,0.3012,0.3014,0,0,0,0,0,0,0.2781,0.2789,0.2846,0.2817,0.2824,0.2857,0.2873,0.2878,0.2893,0.2909,0.2914,0.2918,0.2929,0.2933,0.2958,0.2985,0.2954,0.2955,0.3009,0.3011,0.3013,0.3031,0,0,0,0,0,0,0.2778,0.2788,0.2807,0.2818,0.2827,0.2858,0.2873,0.2877,0.2901,0.2906,0.2923,0.2928,0.2931,0.2958,0.2958,0.2984,0.2955,0.3007,0.301,0.3012,0.3029,0.3034,0.3038,0,0,0,0,0,0.2774,0.2792,0.2807,0.2817,0.285,0.2859,0.2861,0.2884,0.29,0.2904,0.2926,0.2928,0.2976,0.2958,0.2959,0.2985,0.3006,0.3009,0.3012,0.3027,0.3033,0.3038,0,0,0,0,0,0,0.2763,0.2798,0.2815,0.2847,0.2861,0.2869,0.2877,0.2892,0.2907,0.2919,0.2932,0.2937,0.2972,0.2976,0.2956,0.3014,0.2997,0.3,0.3008,0.3014,0.3018,0.3021,0.2955,0,0,0,0,0,0.2769,0.2779,0.2816,0.2832,0.2848,0.2863,0.2873,0.2889,0.2905,0.2914,0.2936,0.2961,0.2978,0.2995,0.3007,0.3027,0.304,0.3051,0.3056,0.3059,0.3064,0.3106,0.3114,0.3024,0.3024,0.3024,0,0,0.276,0.2785,0.2788,0.2828,0.2839,0.2857,0.2872,0.2889,0.291,0.2916,0.2954,0.2971,0.2987,0.3016,0.3034,0.3028,0.3093,0.3063,0.3066,0.3069,0.311,0.3119,0.3126,0.3027,0.3026,0.3026,0,0,0.2744,0.278,0.2787,0.2809,0.2844,0.2854,0.2867,0.2897,0.2922,0.2947,0.2971,0.3004,0.3027,0.3051,0.3062,0.3097,0.3111,0.3115,0.3142,0.3182,0.319,0.3196,0.3224,0.3232,0.3122,0.3122,0.3122,0,0.2731,0.2763,0.2787,0.2812,0.2836,0.2858,0.288,0.2898,0.2935,0.2966,0.2967,0.3032,0.304,0.3088,0.3106,0.3106,0.3133,0.3115,0.3187,0.3194,0.3201,0.3227,0.3236,0.3123,0.3123,0.3123,0.3123,0,0.2736,0.2763,0.2769,0.2807,0.2832,0.2848,0.2893,0.2926,0.2956,0.2983,0.3046,0.3061,0.3105,0.3118,0.3117,0.3182,0.3187,0.3182,0.3168,0.3211,0.3236,0.3245,0.3125,0.3125,0.3124,0.3124,0,0,0.2686,0.2757,0.2759,0.2784,0.2839,0.2853,0.2902,0.2954,0.2997,0.3035,0.3096,0.3125,0.3153,0.3168,0.3188,0.3223,0.3282,0.323,0.3231,0.3248,0.3377,0.3334,0.3341,0.3299,0.3301,0.3302,0.3375,0,0.2677,0.2717,0.2765,0.2794,0.2818,0.2876,0.2916,0.297,0.3019,0.3083,0.3125,0.3178,0.3168,0.3202,0.3235,0.3279,0.331,0.3263,0.3341,0.3343,0.3293,0.3351,0.3084,0.3123,0.3384,0.3386,0.3387,0,0.267,0.2699,0.2736,0.2803,0.2823,0.2849,0.2934,0.2976,0.3071,0.3123,0.319,0.3228,0.3298,0.3275,0.3363,0.3342,0.3361,0.3381,0.3384,0.3345,0.3319,0.3125,0.3131,0.3403,0.3402,0.3401,0.34,0,0.2616,0.2678,0.2707,0.273,0.2809,0.2848,0.2893,0.2985,0.3047,0.3157,0.3215,0.3295,0.3351,0.3392,0.3437,0.3414,0.3529,0.3494,0.3469,0.3466,0.3253,0.3228,0.3546,0.3546,0.3546,0.3546,0.3545,0,0.259,0.261,0.2684,0.2699,0.2743,0.2814,0.2878,0.2953,0.3065,0.3134,0.323,0.33,0.3388,0.3461,0.3475,0.3515,0.356,0.3488,0.349,0.3252,0.3228,0.3478,0.3469,0.3548,0.3548,0.3547,0.3547,0,0.2527,0.2575,0.2608,0.269,0.2718,0.275,0.2866,0.2915,0.3036,0.3134,0.3178,0.3334,0.3431,0.3504,0.3588,0.3566,0.3602,0.3599,0.3315,0.3282,0.3497,0.3489,0.357,0.357,0.3569,0.3568,0.3568,0,0.25,0.2508,0.2585,0.2607,0.2645,0.2706,0.2751,0.2885,0.2948,0.3137,0.318,0.3332,0.3409,0.3537,0.354,0.3573,0.3617,0.3329,0.3223,0.351,0.3504,0.3496,0.3489,0.2944,0.2938,0.2934,0.293,0,0.2444,0.2472,0.2502,0.2543,0.2588,0.2634,0.2713,0.2759,0.291,0.3001,0.3122,0.3205,0.3355,0.3284,0.3359,0.3333,0.3303,0.324,0.3621,0.2989,0.2928,0.2919,0.2931,0.289,0.2894,0.2897,0.2899,0.2901,0.2399,0.2402,0.2439,0.2469,0.2515,0.2537,0.2534,0.2628,0.27,0.2797,0.2955,0.2989,0.3062,0.3043,0.2975,0.2928,0.3145,0.2983,0.2993,0.3008,0.2933,0.2875,0.2813,0.2816,0.2819,0.2821,0.2824,0,0.2326,0.2339,0.2363,0.2383,0.2377,0.2441,0.2485,0.2456,0.2474,0.2604,0.2679,0.2514,0.2501,0.2566,0.2445,0.2471,0.2409,0.2358,0.2233,0.2277,0.2316,0.22,0.1888,0.1884,0.1881,0.1878,0,0,0.2288,0.2268,0.2273,0.2229,0.2244,0.2194,0.2184,0.2171,0.2217,0.2203,0.2206,0.2403,0.2508,0.2156,0.2132,0.198,0.2104,0.1909,0.267,0.2569,0.2602,0.2701,0.2577,0,0,0,0,0]},{"header":{"parameterUnit":"m.s-1","parameterCategory":2,"la1":30.2991,"la2":30.254,"lo1":-89.0895,"lo2":-89.0444,"dy":0.0017,"dx":0.0017,"nx":28,"ny":28,"refTime":"2025-01-15T09:00:00:Z","depth":"2","parameterNumber":3,"parameterNumberName":"V-component_of_CURRENTS"},"data":[0,0,0,0,0,0,0,0,0,0,0,0,0,0,0,0,0,0,0,0,0,0,0,0,0,0,0,0,0,0,0,0,0,0,0,0,0,0,0,0,0,0,0,0,0,0,0,0,0,0,0,0,0,0,0,0,0,0,0.0156,0.0155,0,0.0094,0.0093,0.0093,0.0044,0.0044,0.0043,0.0043,-0.0062,-0.0064,-0.0067,0,0,0,0,0,0,0,0,0,0,0,0,0,0.0196,0.0196,0.0156,0.0155,0.0154,0.0094,0.0093,0.0092,0.0044,0.0044,0.0043,0.0043,-0.0061,-0.0064,-0.0067,0,0,0,0,0,0,0,0,0,0,0,0,0,0.0161,0.0196,0.0156,0.0123,0.0119,0.0094,0.0093,0.0092,0.0044,0.0044,0.0043,0.0042,-0.006,-0.0064,-0.0067,-0.0074,0,0,-0.0078,-0.0079,0,0,0,0,0,0,0,0,0.0164,0.016,0.0129,0.0125,0.0121,0.0076,0.0069,0.0034,0.0045,0.0073,0.0043,0.0042,-0.002,-0.0026,-0.0035,-0.0079,-0.0083,-0.0078,-0.008,-0.0082,-0.0083,0,0,0,0,0,0,0,0.0166,0.0162,0.0132,0.0128,0.0123,0.0099,0.0093,0.0062,0.0031,0.0071,0.0067,0.006,-0.0022,-0.0032,-0.0038,-0.0085,-0.0078,-0.0081,-0.0083,-0.0085,-0.0152,-0.0152,0,0,0,0,0,0,0.0176,0.0165,0.0134,0.013,0.0141,0.0099,0.0093,0.0091,0.0032,0.0023,0.006,0.0058,-0.0026,-0.0034,-0.0042,-0.0052,-0.0082,-0.0085,-0.0087,-0.0153,-0.0152,-0.0152,0,0,0,0,0,0,0.0177,0.0174,0.0136,0.0145,0.0139,0.0099,0.0098,0.009,0.0077,0.0025,0.0015,0.0054,-0.0026,-0.0037,-0.0065,-0.0056,-0.0087,-0.009,-0.0153,-0.0153,-0.0152,-0.0072,0,0,0,0,0,0,0.0179,0.0175,0.0177,0.0146,0.0138,0.0129,0.0098,0.009,0.0074,0.007,0.0016,0.0006,-0.0028,-0.006,-0.0069,-0.0062,-0.0093,-0.0153,-0.0153,-0.0152,-0.0075,-0.0069,-0.0064,0,0,0,0,0,0.0181,0.0188,0.0178,0.0174,0.0143,0.013,0.0124,0.0093,0.0074,0.0077,0.0039,0.0007,-0.0063,-0.0062,-0.0073,-0.0067,-0.0154,-0.0153,-0.0152,-0.0078,-0.007,-0.0064,0,0,0,0,0,0,0.0205,0.0183,0.0171,0.0171,0.0155,0.0122,0.0118,0.0097,0.007,0.0064,0.0012,0.0,-0.002,-0.0055,-0.0053,-0.0085,-0.0114,-0.0116,-0.0054,-0.0047,-0.0042,-0.0025,-0.0095,0,0,0,0,0,0.0214,0.0218,0.0189,0.0194,0.0184,0.0152,0.0142,0.0124,0.0096,0.0083,0.0044,0.0004,-0.0024,-0.0045,-0.0075,-0.0093,-0.0126,-0.0098,-0.0092,-0.0087,-0.0081,-0.012,-0.0117,-0.015,-0.015,-0.015,0,0,0.0225,0.0215,0.0216,0.02,0.0183,0.0184,0.0144,0.0136,0.0138,0.0075,0.0062,0.0024,-0.0024,-0.004,-0.0054,-0.007,-0.0094,-0.0086,-0.0081,-0.0078,-0.0119,-0.0115,-0.0113,-0.0149,-0.0149,-0.0149,0,0,0.0257,0.0241,0.0254,0.0245,0.0226,0.021,0.021,0.0178,0.0161,0.0145,0.0103,0.0074,0.0024,-0.0004,-0.0025,-0.0008,-0.0059,-0.0023,0.0015,-0.0022,-0.0019,-0.0017,-0.0048,-0.005,-0.0024,-0.0024,-0.0023,0,0.0272,0.0285,0.0257,0.0267,0.0266,0.0226,0.0242,0.0222,0.0186,0.0177,0.0151,0.0086,0.0044,0.0027,0.0031,0.0006,-0.0024,-0.0003,-0.0013,-0.0012,-0.0011,-0.0044,-0.0047,-0.002,-0.002,-0.002,-0.0021,0,0.0311,0.032,0.0328,0.0331,0.0328,0.0335,0.0307,0.0298,0.027,0.0246,0.0219,0.0161,0.0123,0.0103,0.007,0.0056,0.0031,0.0004,-0.0026,-0.0003,-0.0039,-0.0043,-0.0014,-0.0015,-0.0017,-0.0018,0,0,0.0348,0.0355,0.0358,0.0376,0.0363,0.037,0.0371,0.0363,0.0369,0.0318,0.0316,0.0258,0.022,0.0193,0.0144,0.0106,0.0083,0.0059,0.0055,0.0037,0.0003,-0.0012,-0.0019,0.0052,0.0052,0.0051,-0.0021,0,0.0389,0.043,0.0418,0.0462,0.0481,0.0452,0.0458,0.0445,0.0422,0.0409,0.034,0.032,0.0256,0.024,0.0192,0.0114,0.0074,0.0105,-0.0025,-0.0028,-0.0037,-0.0023,-0.0001,-0.0064,-0.0026,-0.0027,-0.0027,0,0.0429,0.0456,0.0502,0.0534,0.0537,0.0553,0.0566,0.057,0.0536,0.0516,0.0476,0.042,0.0361,0.0302,0.0177,0.0198,0.0109,0.004,0.0035,-0.0009,-0.0051,-0.0084,-0.0074,-0.0035,-0.0035,-0.0034,-0.0033,0,0.0477,0.0516,0.0561,0.057,0.0591,0.0604,0.0613,0.06,0.0621,0.0587,0.0595,0.0504,0.047,0.0346,0.0199,0.0187,0.0058,0.0022,-0.0076,-0.0078,-0.01,-0.0103,-0.0068,-0.0068,-0.0068,-0.0068,-0.0067,0,0.0526,0.0562,0.0587,0.0611,0.067,0.0659,0.0712,0.0705,0.0711,0.0748,0.0655,0.0662,0.0478,0.038,0.0232,0.0072,0.008,-0.0064,-0.0097,-0.0071,-0.0071,-0.0082,-0.0082,-0.007,-0.007,-0.0069,-0.0069,0,0.057,0.0582,0.064,0.0675,0.0693,0.0734,0.0792,0.0831,0.0822,0.0868,0.0864,0.0784,0.0659,0.047,0.0272,0.013,-0.0032,-0.0094,-0.0049,-0.0075,-0.0153,-0.0149,-0.0208,-0.021,-0.021,-0.0211,-0.0212,0,0.0595,0.0628,0.0694,0.0737,0.0755,0.0816,0.0864,0.0885,0.0941,0.095,0.0984,0.0879,0.0825,0.0533,0.0266,0.001,-0.0029,-0.0147,-0.0171,-0.0141,-0.0167,-0.0162,-0.0156,-0.017,-0.017,-0.017,-0.0171,0,0.0646,0.0664,0.0714,0.0805,0.0867,0.0947,0.1018,0.1082,0.111,0.1149,0.1178,0.1133,0.0862,0.0612,0.0257,0.0076,-0.0106,-0.0159,-0.0143,-0.0133,-0.011,-0.0134,-0.0129,-0.0172,-0.0172,-0.0172,-0.0172,-0.0172,0.0682,0.0726,0.0792,0.0881,0.0959,0.1058,0.1131,0.1215,0.1308,0.1364,0.1324,0.1262,0.0974,0.053,0.022,-0.0114,-0.01,-0.0225,-0.0222,-0.022,-0.0197,-0.0177,-0.0248,-0.0248,-0.0248,-0.0249,-0.0249,0,0.0724,0.0778,0.0864,0.0966,0.1057,0.1094,0.1224,0.1294,0.1405,0.1456,0.1475,0.1199,0.0919,0.0583,0.01,-0.0187,-0.0217,-0.029,-0.0256,-0.0252,-0.0248,-0.0226,-0.0285,-0.0286,-0.0287,-0.0288,0,0,0.0746,0.0829,0.0874,0.1026,0.1105,0.123,0.1306,0.1405,0.147,0.1514,0.1487,0.1428,0.1023,0.0672,0.0279,0.0001,-0.0066,-0.0067,-0.0007,0.0084,0.0091,-0.0181,-0.0139,0,0,0,0,0]}],[{"header":{"parameterUnit":"m.s-1","parameterCategory":2,"la1":30.2991,"la2":30.254,"lo1":-89.0895,"lo2":-89.0444,"dy":0.0017,"dx":0.0017,"nx":28,"ny":28,"refTime":"2025-01-15T09:00:00:Z","depth":"4","parameterNumber":2,"parameterNumberName":"U-component_of_CURRENTS"},"data":[0,0,0,0,0,0,0,0,0,0,0,0,0,0,0,0,0,0,0,0,0,0,0,0,0,0,0,0,0,0,0,0,0,0,0,0,0,0,0,0,0,0,0,0,0,0,0,0,0,0,0,0,0,0,0,0,0,0,0.168,0.1681,0,0.1764,0.1765,0.1766,0.1821,0.1821,0.1821,0.1822,0.1897,0.1898,0.19,0,0,0,0,0,0,0,0,0,0,0,0,0,0.1596,0.1597,0.168,0.1681,0.1683,0.1764,0.1765,0.1766,0.182,0.1821,0.1821,0.1822,0.1896,0.1898,0.19,0,0,0,0,0,0,0,0,0,0,0,0,0,0.1651,0.1598,0.168,0.172,0.1724,0.1764,0.1765,0.1767,0.182,0.1821,0.1822,0.1822,0.1895,0.1898,0.19,0.1904,0,0,0.1908,0.1909,0,0,0,0,0,0,0,0,0.1648,0.1654,0.1713,0.1717,0.1722,0.1783,0.1763,0.1812,0.182,0.1783,0.1822,0.1822,0.1858,0.1863,0.1877,0.1907,0.1911,0.1908,0.1909,0.1911,0.1911,0,0,0,0,0,0,0,0.1644,0.1651,0.1713,0.1714,0.172,0.1743,0.1751,0.1773,0.1816,0.1787,0.1791,0.1801,0.186,0.1875,0.1879,0.1912,0.1908,0.191,0.1912,0.1913,0.2041,0.2043,0,0,0,0,0,0,0.1632,0.1647,0.1711,0.1716,0.1686,0.1744,0.1753,0.1762,0.1816,0.1825,0.18,0.1803,0.187,0.1876,0.1882,0.1974,0.191,0.1913,0.1914,0.2039,0.2041,0.2043,0,0,0,0,0,0,0.163,0.1637,0.1707,0.1684,0.1694,0.1745,0.1755,0.1764,0.1815,0.1826,0.1835,0.1846,0.1871,0.1879,0.1932,0.1974,0.1914,0.1916,0.2037,0.204,0.2042,0.2104,0,0,0,0,0,0,0.1627,0.1636,0.1662,0.1683,0.1695,0.1747,0.1755,0.1765,0.1818,0.1824,0.1868,0.1873,0.1872,0.1928,0.1934,0.1977,0.1918,0.2034,0.2038,0.2041,0.21,0.2109,0.2116,0,0,0,0,0,0.1624,0.1646,0.1663,0.1672,0.1721,0.1748,0.1758,0.1795,0.182,0.1844,0.1879,0.1874,0.1956,0.1932,0.1938,0.1982,0.2032,0.2037,0.2041,0.2096,0.2107,0.2116,0,0,0,0,0,0,0.162,0.1654,0.1673,0.1705,0.1734,0.1758,0.1794,0.1817,0.1866,0.1886,0.1897,0.1905,0.1969,0.1968,0.1941,0.2031,0.1994,0.2,0.2034,0.2044,0.2053,0.2052,0.192,0,0,0,0,0,0.1631,0.1663,0.1689,0.1719,0.1738,0.1775,0.1802,0.1826,0.186,0.1885,0.1913,0.1949,0.1986,0.2009,0.2035,0.2082,0.2087,0.2116,0.2125,0.2132,0.2137,0.218,0.2193,0.2058,0.2058,0.2057,0,0,0.1639,0.1663,0.1683,0.1723,0.1754,0.1786,0.1794,0.1842,0.188,0.1884,0.1956,0.1983,0.2006,0.2061,0.2089,0.2069,0.2176,0.2137,0.2143,0.2145,0.2186,0.2199,0.2211,0.2061,0.206,0.206,0,0,0.1656,0.1693,0.1723,0.1752,0.1802,0.1822,0.1843,0.1887,0.1925,0.1985,0.2004,0.2056,0.2108,0.2132,0.215,0.2222,0.222,0.2239,0.2281,0.2323,0.2335,0.2344,0.2375,0.2387,0.2241,0.2241,0.2241,0,0.1671,0.1705,0.1737,0.1769,0.1801,0.1842,0.1877,0.1917,0.1975,0.201,0.2018,0.2122,0.2141,0.221,0.2237,0.2242,0.2262,0.2239,0.2334,0.2344,0.2353,0.2381,0.2394,0.2245,0.2244,0.2244,0.2244,0,0.1694,0.174,0.1762,0.1817,0.1854,0.1894,0.194,0.1992,0.2043,0.2079,0.2169,0.2202,0.2261,0.2281,0.2284,0.2365,0.2358,0.234,0.2305,0.237,0.2396,0.2408,0.225,0.2248,0.2247,0.2247,0,0,0.1679,0.1763,0.1776,0.1812,0.1886,0.1912,0.1986,0.2053,0.2112,0.2176,0.225,0.232,0.2348,0.2371,0.2389,0.2427,0.251,0.2418,0.2419,0.2442,0.2607,0.2443,0.244,0.2514,0.2517,0.2518,0.2601,0,0.1694,0.1756,0.18,0.1871,0.1906,0.1971,0.2033,0.2103,0.2171,0.225,0.2307,0.2386,0.238,0.2427,0.2465,0.2505,0.2544,0.2489,0.2545,0.2546,0.2388,0.2449,0.2526,0.261,0.2612,0.2614,0.2616,0,0.1695,0.1741,0.181,0.1902,0.1926,0.198,0.2088,0.2149,0.226,0.232,0.2404,0.2452,0.2539,0.2518,0.2615,0.2585,0.2606,0.2623,0.2626,0.2457,0.2404,0.253,0.2637,0.2635,0.2634,0.2632,0.2631,0,0.1649,0.1746,0.1803,0.1834,0.1943,0.2,0.2065,0.2176,0.2244,0.2375,0.2442,0.2537,0.2608,0.2651,0.2696,0.2672,0.2785,0.2749,0.262,0.2609,0.2704,0.2692,0.2813,0.2813,0.2813,0.2812,0.2812,0,0.1627,0.1679,0.1794,0.1824,0.1904,0.1988,0.2086,0.2168,0.2296,0.2371,0.2479,0.2545,0.265,0.272,0.2734,0.2713,0.282,0.2636,0.2621,0.2729,0.2719,0.2712,0.2699,0.2815,0.2815,0.2814,0.2814,0,0.1565,0.1642,0.1714,0.184,0.1885,0.1943,0.2092,0.2155,0.2291,0.2394,0.2446,0.2591,0.2669,0.2746,0.2827,0.275,0.2753,0.272,0.2848,0.2837,0.254,0.253,0.2571,0.2566,0.2562,0.2558,0.2555,0,0.1533,0.1566,0.1708,0.1754,0.182,0.1921,0.1988,0.2138,0.2202,0.2391,0.2423,0.2566,0.2637,0.262,0.271,0.2726,0.2694,0.2678,0.2584,0.2535,0.2517,0.2513,0.2509,0.2548,0.2547,0.2546,0.2545,0,0.147,0.1538,0.1597,0.1692,0.1774,0.1847,0.1953,0.1987,0.2146,0.2295,0.2342,0.2383,0.2467,0.2512,0.2555,0.2557,0.2673,0.2632,0.2639,0.2552,0.2508,0.2493,0.2494,0.253,0.2532,0.2534,0.2535,0,0.1426,0.145,0.1537,0.1606,0.1702,0.1736,0.1805,0.1871,0.1951,0.2149,0.216,0.23,0.2438,0.2427,0.2462,0.2457,0.2408,0.2316,0.2339,0.2357,0.2246,0.2156,0.2064,0,0,0,0,0,0.1368,0.138,0.144,0.1504,0.1594,0.1645,0.1765,0.1834,0.1986,0.1965,0.2055,0.2115,0.216,0.2239,0.2189,0.2371,0.2423,0.2303,0.233,0.2448,0.2465,0.2354,0,0,0,0,0,0,0.1326,0.1377,0.1398,0.1403,0.1427,0.1503,0.1568,0.167,0.1665,0.1827,0.1864,0.1989,0.2069,0.2167,0.2149,0.2173,0.2146,0.2399,0.2393,0.2438,0.2454,0.2467,0.2359,0,0,0,0,0]},{"header":{"parameterUnit":"m.s-1","parameterCategory":2,"la1":30.2991,"la2":30.254,"lo1":-89.0895,"lo2":-89.0444,"dy":0.0017,"dx":0.0017,"nx":28,"ny":28,"refTime":"2025-01-15T09:00:00:Z","depth":"4","parameterNumber":3,"parameterNumberName":"V-component_of_CURRENTS"},"data":[0,0,0,0,0,0,0,0,0,0,0,0,0,0,0,0,0,0,0,0,0,0,0,0,0,0,0,0,0,0,0,0,0,0,0,0,0,0,0,0,0,0,0,0,0,0,0,0,0,0,0,0,0,0,0,0,0,0,0.0228,0.0228,0,0.0188,0.0188,0.0187,0.0175,0.0176,0.0176,0.0176,0.013,0.0129,0.0127,0,0,0,0,0,0,0,0,0,0,0,0,0,0.0237,0.0238,0.0228,0.0228,0.0227,0.0189,0.0188,0.0187,0.0175,0.0176,0.0176,0.0176,0.0131,0.0129,0.0127,0,0,0,0,0,0,0,0,0,0,0,0,0,0.0219,0.0238,0.0228,0.0217,0.0216,0.0189,0.0188,0.0187,0.0175,0.0176,0.0176,0.0177,0.0131,0.0129,0.0127,0.0105,0,0,0.012,0.0119,0,0,0,0,0,0,0,0,0.022,0.0218,0.0219,0.0218,0.0217,0.0188,0.0174,0.016,0.0175,0.019,0.0176,0.0177,0.0149,0.0146,0.0136,0.0103,0.0101,0.012,0.0119,0.0118,0.0117,0,0,0,0,0,0,0,0.0221,0.0219,0.0212,0.0219,0.0217,0.0195,0.0193,0.0171,0.0167,0.0189,0.0188,0.0185,0.0148,0.0138,0.0135,0.01,0.012,0.0118,0.0117,0.0116,0.0067,0.0067,0,0,0,0,0,0,0.023,0.0221,0.0213,0.0211,0.022,0.0195,0.0193,0.0196,0.0167,0.0164,0.0184,0.0184,0.0142,0.0138,0.0133,0.0133,0.0118,0.0116,0.0115,0.0067,0.0067,0.0067,0,0,0,0,0,0,0.0231,0.023,0.0215,0.0215,0.0212,0.0195,0.0198,0.0195,0.0192,0.0164,0.016,0.0185,0.0142,0.0136,0.0126,0.013,0.0115,0.0113,0.0067,0.0067,0.0067,0.0115,0,0,0,0,0,0,0.0231,0.0231,0.0237,0.0216,0.0212,0.0208,0.0198,0.0194,0.0189,0.0189,0.0163,0.0159,0.0142,0.0129,0.0124,0.0127,0.0111,0.0067,0.0067,0.0067,0.0113,0.0117,0.0119,0,0,0,0,0,0.0232,0.024,0.0238,0.0237,0.0222,0.0209,0.0205,0.0193,0.0189,0.019,0.0176,0.016,0.0125,0.0128,0.0121,0.0124,0.0067,0.0067,0.0067,0.0112,0.0116,0.0119,0,0,0,0,0,0,0.0248,0.0239,0.0237,0.0243,0.0231,0.0207,0.0207,0.0197,0.0185,0.0187,0.0161,0.0156,0.0148,0.0127,0.013,0.0109,0.0093,0.0092,0.0129,0.0133,0.0136,0.0148,0.0109,0,0,0,0,0,0.0255,0.0261,0.0245,0.0252,0.0247,0.0227,0.0221,0.0214,0.0199,0.0195,0.0177,0.0157,0.014,0.0132,0.0113,0.0101,0.0074,0.0097,0.01,0.0103,0.0107,0.0071,0.0072,0.0068,0.0068,0.0068,0,0,0.0262,0.0259,0.0262,0.0256,0.0245,0.0247,0.0225,0.0221,0.0224,0.0191,0.019,0.0168,0.014,0.013,0.0124,0.0115,0.0089,0.0103,0.0106,0.0109,0.0071,0.0072,0.0072,0.0068,0.0068,0.0068,0,0,0.0279,0.0278,0.0287,0.0282,0.0273,0.0263,0.0265,0.0246,0.0241,0.0234,0.0212,0.0195,0.0168,0.015,0.0137,0.0143,0.0107,0.0135,0.0159,0.0124,0.0124,0.0124,0.0089,0.0085,0.0135,0.0135,0.0136,0,0.0289,0.0303,0.0287,0.0295,0.0298,0.0275,0.0287,0.0275,0.0256,0.0254,0.0242,0.0202,0.0178,0.0164,0.0167,0.015,0.0124,0.015,0.0129,0.0128,0.0127,0.009,0.0086,0.0138,0.0138,0.0137,0.0137,0,0.0311,0.0324,0.0328,0.0336,0.0335,0.0341,0.0327,0.0325,0.0314,0.03,0.0284,0.0246,0.0224,0.0209,0.019,0.0172,0.0153,0.0139,0.0123,0.0131,0.0091,0.0085,0.0141,0.014,0.014,0.0139,0,0,0.0328,0.0342,0.0345,0.0363,0.0361,0.0366,0.0371,0.037,0.0379,0.0347,0.0348,0.0308,0.0283,0.0266,0.0233,0.02,0.0167,0.017,0.0167,0.014,0.0087,0.0075,0.0067,0.0148,0.0147,0.0147,0.0062,0,0.0352,0.0384,0.0383,0.0417,0.0434,0.0422,0.043,0.0426,0.0415,0.0409,0.036,0.0349,0.0306,0.0297,0.0256,0.0193,0.0154,0.0191,0.0078,0.0075,0.0068,0.0061,0.0145,0.0057,0.0056,0.0055,0.0054,0,0.0373,0.0396,0.0435,0.0468,0.0474,0.049,0.0509,0.0515,0.0495,0.0485,0.0456,0.0418,0.0369,0.0331,0.0219,0.0245,0.0172,0.0115,0.011,0.0079,0.0052,0.0046,0.0043,0.0044,0.0045,0.0046,0.0046,0,0.0398,0.0435,0.0474,0.0483,0.051,0.0528,0.0542,0.0538,0.0558,0.0535,0.0542,0.0469,0.0441,0.0339,0.0222,0.022,0.0093,0.0075,-0.0008,-0.001,0.0006,0.0007,-0.0007,-0.0007,-0.0007,-0.0006,-0.0006,0,0.0422,0.0455,0.0491,0.0512,0.0564,0.0566,0.0614,0.0613,0.0623,0.0648,0.0585,0.0579,0.0442,0.0354,0.0238,0.0098,0.0102,-0.0006,-0.0033,0.0027,0.0032,0.0001,0.0003,-0.0009,-0.0009,-0.0008,-0.0008,0,0.0439,0.0461,0.0511,0.0555,0.0577,0.0614,0.0674,0.0705,0.0704,0.0734,0.0732,0.0662,0.0545,0.0399,0.0232,0.0128,-0.0008,-0.006,0.0017,-0.0004,-0.0094,-0.0089,-0.0162,-0.0163,-0.0164,-0.0165,-0.0165,0,0.0449,0.0476,0.0549,0.0587,0.0612,0.0671,0.0714,0.0744,0.078,0.0782,0.0796,0.0704,0.0633,0.0392,0.0231,0.0004,-0.0031,-0.0109,-0.0107,-0.0091,-0.0111,-0.0103,-0.0097,-0.0167,-0.0167,-0.0168,-0.0168,0,0.0467,0.0494,0.0538,0.062,0.0679,0.0748,0.081,0.0845,0.0872,0.0881,0.0845,0.0721,0.0588,0.0396,0.0219,0.0056,-0.0062,-0.012,-0.0119,-0.0118,-0.0098,-0.0115,-0.0107,-0.0171,-0.0171,-0.017,-0.017,0,0.048,0.0512,0.0572,0.0644,0.0724,0.0791,0.0828,0.0866,0.0901,0.0901,0.0887,0.0743,0.0665,0.0422,0.0261,0.0098,0.0051,-0.0013,-0.0019,-0.0017,0.0047,0.0094,0.0057,0,0,0,0,0,0.0485,0.0521,0.0591,0.0667,0.0748,0.0795,0.0876,0.0906,0.0938,0.0921,0.0906,0.0781,0.0542,0.0445,0.0279,0.0229,0.0014,0.0027,-0.0064,-0.019,-0.0186,-0.0137,0,0,0,0,0,0,0.0485,0.0547,0.0583,0.0672,0.0727,0.0816,0.0869,0.0896,0.0887,0.0895,0.0777,0.0725,0.05,0.0636,0.0271,0.0223,0.0137,-0.0076,-0.0081,-0.0192,-0.0188,-0.0185,-0.0134,0,0,0,0,0]}]]